WetterOnline ( https://www.wetteronline.de )

Wetter aktuell Bork Havn

Aktuelles Wetter: Hvide Sande (4m)

6-stündlich | Neueste Meldungen
Ortszeit Temperatur Wetter
So, 31.05. 14:00 20.7° C fast wolkenlos
So, 31.05. 8:00 14.2° C wolkenlos
So, 31.05. 2:00 14.9° C wolkenlos
Sa, 30.05. 20:00 19.3° C wolkenlos
Sa, 30.05. 14:00 21.5° C wolkenlos
Sa, 30.05. 8:00 12.7° C wolkenlos
Sa, 30.05. 2:00 11.1° C wolkenlos
Fr, 29.05. 20:00 12.5° C wolkenlos
Ortszeit Temperatur Wetter
So, 31.05. 19:00 19.6° C wolkenlos
So, 31.05. 18:00 19.8° C fast wolkenlos
So, 31.05. 17:00 20.5° C fast wolkenlos
So, 31.05. 16:00 21.1° C fast wolkenlos
So, 31.05. 15:00 21.1° C wolkenlos
So, 31.05. 14:00 20.7° C fast wolkenlos
Ortszeit Relative Feuchte Sichtweite
So, 31.05. 14:00 47% 30 km
So, 31.05. 8:00 79% 35 km
So, 31.05. 2:00 70% 50 km
Sa, 30.05. 20:00 55% 45 km
Sa, 30.05. 14:00 47% 30 km
Sa, 30.05. 8:00 73% 35 km
Sa, 30.05. 2:00 91% 19 km
Fr, 29.05. 20:00 75% 35 km
Ortszeit Relative Feuchte Sichtweite
So, 31.05. 19:00 61% 45 km
So, 31.05. 18:00 59% 40 km
So, 31.05. 17:00 52% 35 km
So, 31.05. 16:00 51% 35 km
So, 31.05. 15:00 45% 35 km
So, 31.05. 14:00 47% 30 km
Ortszeit Niederschlagsmenge Niederschlagsart
So, 31.05. 14:00 0.0 l/m2 in 6 Std. -
So, 31.05. 8:00 keine Meldung -
So, 31.05. 2:00 keine Meldung -
Sa, 30.05. 20:00 0.0 l/m2 in 3 Std. -
Sa, 30.05. 14:00 0.0 l/m2 in 3 Std. -
Sa, 30.05. 8:00 0.0 l/m2 in 3 Std. -
Sa, 30.05. 2:00 0.0 l/m2 in 3 Std. -
Fr, 29.05. 20:00 0.0 l/m2 in 3 Std. -
Ortszeit Niederschlagsmenge Niederschlagsart
So, 31.05. 19:00 keine Meldung -
So, 31.05. 18:00 keine Meldung -
So, 31.05. 17:00 0.0 l/m2 in 1 Std. -
So, 31.05. 16:00 keine Meldung -
So, 31.05. 15:00 keine Meldung -
So, 31.05. 14:00 keine Meldung -
Ortszeit Stärke Spitze Richtung
km/h Bft. km/h Grad Sektor
So, 31.05. 14:00 14 3 - 60° NO
So, 31.05. 8:00 13 3 - 70° O
So, 31.05. 2:00 19 3 - 50° NO
Sa, 30.05. 20:00 22 4 - 70° O
Sa, 30.05. 14:00 13 3 - 60° NO
Sa, 30.05. 8:00 13 3 - 70° O
Sa, 30.05. 2:00 19 3 - 30° NO
Fr, 29.05. 20:00 24 4 - 340° N
Ortszeit Stärke Spitze Richtung
km/h Bft. km/h Grad Sektor
So, 31.05. 19:00 17 3 - 80° O
So, 31.05. 18:00 15 3 - 70° O
So, 31.05. 17:00 18 3 - 80° O
So, 31.05. 16:00 11 2 - 60° NO
So, 31.05. 15:00 13 3 - 60° NO
So, 31.05. 14:00 14 3 - 60° NO
Ortszeit Untergrenze Bedeckung Gattung
total tief tief mittel hoch
So, 31.05. 14:00 2100 m 1/8 1/8 - - -
So, 31.05. 8:00 - 0/8 0/8 - - -
So, 31.05. 2:00 - 0/8 0/8 - - -
Sa, 30.05. 20:00 - 0/8 0/8 - - -
Sa, 30.05. 14:00 - 0/8 0/8 - - -
Sa, 30.05. 8:00 - 0/8 0/8 - - -
Sa, 30.05. 2:00 - 0/8 0/8 - - -
Fr, 29.05. 20:00 - 0/8 0/8 - - -
Ortszeit Bedeckungsgrad in Achtel und Wolkenuntergrenze
So, 31.05. 19:00 keine Wolken
So, 31.05. 18:00 1(2100m)
So, 31.05. 17:00 1(2100m)
So, 31.05. 16:00 1(2100m)
So, 31.05. 15:00 keine Wolken
So, 31.05. 14:00 1(2100m)
Ortszeit Luftdruck NN (hPa) Tendenz (hPa in 3 Std.)
So, 31.05. 14:00 1028 - 0,9
So, 31.05. 8:00 1029 + 1,1
So, 31.05. 2:00 1028 + 0,3
Sa, 30.05. 20:00 1026 - 0,9
Sa, 30.05. 14:00 1028 - 1,5
Sa, 30.05. 8:00 1030 + 0,4
Sa, 30.05. 2:00 1029 + 0,2
Fr, 29.05. 20:00 1030 - 1,0
Ortszeit Luftdruck NN (hPa) Tendenz (hPa in 3 Std.)
So, 31.05. 19:00 1028 - 0,2
So, 31.05. 18:00 1028 - 0,3
So, 31.05. 17:00 1028 - 0,5
So, 31.05. 16:00 1028 - 0,6
So, 31.05. 15:00 1028 - 0,8
So, 31.05. 14:00 1028 - 0,9
Ortszeit Schneehöhe (cm)
So, 31.05. 14:00 -
So, 31.05. 8:00 -
So, 31.05. 2:00 -
Sa, 30.05. 20:00 -
Sa, 30.05. 14:00 -
Sa, 30.05. 8:00 -
Sa, 30.05. 2:00 -
Fr, 29.05. 20:00 -
Ortszeit Schneehöhe (cm)
So, 31.05. 19:00 -
So, 31.05. 18:00 -
So, 31.05. 17:00 -
So, 31.05. 16:00 -
So, 31.05. 15:00 -
So, 31.05. 14:00 -
Link zu dieser Seite / Seite empfehlen

Das Wetter in ...